[[{"header":{"parameterUnit":"m.s-1","parameterCategory":1,"la1":30.2992,"la2":30.254,"lo1":-89.0895,"lo2":-89.0443,"dy":0.0025,"dx":0.0025,"nx":19,"ny":19,"refTime":"2026-05-09T03:00:00:Z","depth":0,"parameterNumber":2,"parameterNumberName":"U-component_of_WINDS"},"data":[0,0,0,1.2773,1.2775,1.2869,1.2869,1.2987,1.2988,0,0,0,0,0,0,0,0,0,0,0,1.2745,1.2746,1.2773,1.2775,1.2869,1.2869,1.2986,1.2988,0,0,0,0,0,0,0,0,0,0,0,1.2744,1.2745,1.2746,1.2775,1.2869,1.2869,1.2986,1.2916,0,0,0,0,0,0,0,0,0,0,1.2825,1.2799,1.2745,1.2747,1.2776,1.2869,1.2869,1.2913,1.292,1.2943,0,1.2965,0,1.2978,1.2995,1.2996,0,0,0,1.2775,1.2793,1.2819,1.2747,1.2777,1.2868,1.2826,1.2917,1.2926,1.2954,1.2967,1.2971,1.298,1.2996,1.2997,1.3132,1.3133,0,0,1.277,1.2761,1.2813,1.2824,1.2811,1.2823,1.2829,1.2922,1.2935,1.2967,1.2974,1.2982,1.2997,1.2998,1.3131,1.3132,0,0,0,1.2755,1.2758,1.2781,1.2819,1.2837,1.2826,1.2833,1.2931,1.294,1.2975,1.2983,1.2998,1.2999,1.3131,1.3132,1.3155,0,0,0,1.2752,1.2749,1.2779,1.2775,1.2835,1.2885,1.284,1.2933,1.2944,1.2983,1.2998,1.3,1.313,1.3131,1.3153,1.3167,0,0,0,1.2739,1.2748,1.2761,1.2774,1.2814,1.2884,1.2898,1.2936,1.2949,1.2996,1.3,1.313,1.3131,1.3151,1.3164,1.3199,0,0,0,1.2722,1.278,1.2761,1.283,1.2813,1.2898,1.2897,1.2961,1.3004,1.2998,1.313,1.3132,1.315,1.3162,1.3197,1.3227,1.3239,0,0,1.2791,1.2788,1.2829,1.2815,1.2901,1.2884,1.2974,1.3021,1.3032,1.3098,1.3101,1.3153,1.3163,1.3199,1.3311,1.332,0,0,0,1.2848,1.2877,1.2901,1.2942,1.298,1.3013,1.3048,1.3065,1.3121,1.3065,1.3176,1.3183,1.3204,1.3218,1.3226,1.3245,1.3138,1.3138,1.3138,1.2932,1.2945,1.3012,1.3036,1.3076,1.311,1.3143,1.3172,1.3173,1.3199,1.3218,1.3285,1.3302,1.3308,1.3326,1.3236,1.3236,1.3236,1.3236,1.3033,1.3075,1.3075,1.3141,1.3153,1.3208,1.3244,1.3243,1.3295,1.3271,1.3291,1.3263,1.3318,1.3335,1.3238,1.3238,1.3237,1.3237,1.3237,1.3088,1.3111,1.3132,1.3191,1.3236,1.3258,1.3308,1.3318,1.3327,1.3346,1.3366,1.3366,1.3366,1.3355,1.3355,1.3356,1.3356,1.3356,1.3356,1.3138,1.316,1.3202,1.3247,1.3274,1.3311,1.3346,1.3372,1.3404,1.3407,1.3407,1.3405,1.3321,1.3299,1.336,1.3359,1.3359,1.3358,1.3358,1.3233,1.3213,1.3277,1.3305,1.3358,1.3401,1.3413,1.3466,1.3489,1.3513,1.3507,1.3444,1.3442,1.3436,1.3417,1.3505,1.3505,1.3505,1.3505,1.328,1.328,1.3347,1.339,1.3433,1.345,1.3521,1.3549,1.3574,1.3589,1.3578,1.3555,1.3548,1.355,1.3541,1.3524,1.3637,1.3637,1.3637,1.3339,1.3343,1.3402,1.3428,1.347,1.3505,1.3572,1.362,1.3644,1.3643,1.36,1.3595,1.3558,1.3546,1.3542,1.3529,1.3498,0,0]},{"header":{"parameterUnit":"m.s-1","parameterCategory":1,"la1":30.2992,"la2":30.254,"lo1":-89.0895,"lo2":-89.0443,"dy":0.0025,"dx":0.0025,"nx":19,"ny":19,"refTime":"2026-05-09T03:00:00:Z","depth":0,"parameterNumber":3,"parameterNumberName":"V-component_of_WINDS"},"data":[0,0,0,4.046,4.0462,4.0542,4.0543,4.0651,4.0652,0,0,0,0,0,0,0,0,0,0,0,4.0443,4.0444,4.046,4.0462,4.0542,4.0543,4.0651,4.0652,0,0,0,0,0,0,0,0,0,0,0,4.0443,4.0444,4.0445,4.0463,4.0542,4.0543,4.065,4.0587,0,0,0,0,0,0,0,0,0,0,4.0508,4.05,4.0444,4.0445,4.0463,4.0542,4.0543,4.0584,4.0591,4.0618,0,4.0647,0,4.0652,4.066,4.066,0,0,0,4.0456,4.0494,4.051,4.0446,4.0464,4.0542,4.0505,4.0588,4.0596,4.0628,4.0648,4.0652,4.0653,4.0661,4.0661,4.0845,4.0847,0,0,4.0452,4.046,4.0504,4.0515,4.0507,4.0502,4.0507,4.0593,4.0614,4.0649,4.0654,4.0655,4.0661,4.0662,4.0844,4.0846,0,0,0,4.0443,4.0458,4.0471,4.0511,4.0525,4.0505,4.051,4.061,4.0614,4.0656,4.0656,4.0662,4.0664,4.0843,4.0845,4.0911,0,0,0,4.044,4.0453,4.047,4.0475,4.0524,4.057,4.0527,4.0608,4.0618,4.0656,4.0662,4.0665,4.0842,4.0844,4.0907,4.094,0,0,0,4.0436,4.0452,4.0466,4.0476,4.0511,4.0568,4.0577,4.061,4.0619,4.066,4.0665,4.0841,4.0844,4.0903,4.0934,4.0992,0,0,0,4.0432,4.0522,4.0467,4.0567,4.051,4.061,4.0576,4.0649,4.0692,4.0663,4.0842,4.0845,4.0901,4.093,4.0988,4.1043,4.1067,0,0,4.055,4.0536,4.0594,4.0548,4.066,4.0597,4.0716,4.0746,4.0741,4.081,4.0814,4.0908,4.0933,4.0991,4.1198,4.1218,0,0,0,4.0634,4.0677,4.0704,4.0748,4.0776,4.0801,4.0813,4.0824,4.0883,4.0779,4.0945,4.0959,4.0993,4.1019,4.1035,4.1063,4.0857,4.0857,4.0857,4.0812,4.0803,4.0899,4.09,4.0943,4.0955,4.0988,4.1004,4.098,4.1019,4.104,4.1167,4.1198,4.121,4.124,4.1068,4.1068,4.1068,4.1069,4.0983,4.1041,4.101,4.1093,4.1082,4.1149,4.1164,4.1145,4.1204,4.115,4.1179,4.1121,4.1231,4.1257,4.1074,4.1073,4.1072,4.1072,4.1071,4.1098,4.1125,4.1139,4.1203,4.1252,4.1249,4.1309,4.1296,4.1283,4.1312,4.1332,4.1331,4.1328,4.1323,4.1323,4.1324,4.1324,4.1324,4.1325,4.1212,4.1227,4.1281,4.1319,4.1346,4.138,4.1393,4.1418,4.1442,4.1428,4.1428,4.14,4.1244,4.1206,4.1331,4.133,4.1329,4.1329,4.1328,4.1389,4.1348,4.1431,4.1459,4.1503,4.1553,4.1536,4.1589,4.1607,4.1637,4.1604,4.1491,4.1475,4.1462,4.1429,4.1606,4.1606,4.1606,4.1606,4.1487,4.1479,4.1562,4.1607,4.1649,4.1643,4.1736,4.1747,4.1751,4.1762,4.1734,4.169,4.1678,4.1669,4.1652,4.1621,4.1842,4.1843,4.1843,4.1595,4.1591,4.1674,4.1681,4.1715,4.1743,4.183,4.188,4.1876,4.1852,4.177,4.176,4.1689,4.1666,4.164,4.1613,4.1557,0,0]}]]